Home > Weather > Cocoa Beach > Past weeks

Flag for USA Past Weather in Cocoa Beach, Florida, USA — Yesterday and Last 2 Weeks

Now
82 °F

Sunny.


Feels Like: 86 °F
Forecast: 75 / 87 °F
Wind: 10 mph from South

Location: Cocoa / Patrick Air Force Base

Current Time: May 30, 2016 at 10:06:13 PM

Latest Report: May 30, 2016 at 8:58 PM


Visibility: 10 mi

Pressure: 29.96 "Hg

Humidity: 71%

Dew Point: 71 °F

Location of Cocoa BeachLocation

Past Weather in Cocoa Beach — Graph

°F

Cocoa Beach Temperature Yesterday

Maximum temperature yesterday: 85 °F (at 1:58 PM)
Minimum temperature yesterday: 75 °F (at 5:58 AM)
Average temperature yesterday: 80 °F

High & Low Weather Summary for the Past Weeks

 TemperatureHumidityPressure
High90 °F (May 22, 4:58 PM)100% (May 17, 10:48 PM)30.23 "Hg (May 17, 10:48 PM)
Low72 °F (May 17, 10:48 PM)37% (May 22, 5:58 PM)29.82 "Hg (May 22, 4:58 PM)
Average79 °F74%30.04 "Hg
* Reported May 15 8:58 PM — May 30 8:58 PM, Cocoa Beach, Weather by CustomWeather, © 2016

Note: Actual official high and low records may vary slightly from our data, if they occured in-between our weather recording intervals... More about our weather records

Advertising

Cocoa Beach Weather History for the Previous 24 Hours

Scroll right to see more
 ConditionsComfort  
Time TempWeatherWind HumidityBarometerVisibility
8:58 PM
Mon, May 30
82 °FSunny.10 mph71%29.96 "Hg10 mi
7:58 PM82 °FSunny.12 mph72%29.95 "Hg10 mi
6:58 PM82 °FSunny.9 mph75%29.93 "Hg10 mi
5:58 PM83 °FSunny.10 mph73%29.93 "Hg10 mi
4:58 PM83 °FSunny.10 mph74%29.93 "Hg10 mi
3:58 PM82 °FSunny.5 mph73%29.95 "Hg10 mi
2:58 PM86 °FThunderstorms. Sunny.9 mph65%29.96 "Hg10 mi
1:58 PM86 °FSunny.8 mph62%29.97 "Hg10 mi
12:58 PM87 °FSunny.2 mph57%30.00 "Hg10 mi
11:58 AM85 °FSunny.2 mph61%30.02 "Hg10 mi
10:58 AM85 °FSunny.9 mph59%30.03 "Hg10 mi
9:58 AM83 °FSunny.7 mph63%30.03 "Hg10 mi
8:58 AM81 °FSunny.8 mph68%30.03 "Hg10 mi
7:58 AM78 °FSunny.3 mph76%30.01 "Hg10 mi
6:58 AM75 °FClear.6 mph83%30.01 "Hg10 mi
5:58 AM74 °FClear.6 mph87%30.01 "Hg10 mi
4:58 AM75 °FPassing clouds.7 mph80%30.00 "Hg10 mi
3:58 AM74 °FPassing clouds.8 mph83%29.99 "Hg10 mi
2:58 AM76 °FPassing clouds.5 mph80%30.00 "Hg10 mi
1:58 AM77 °FPassing clouds.7 mph83%30.01 "Hg10 mi
12:58 AM79 °FThundershowers. Passing clouds.5 mph80%30.03 "Hg10 mi
11:58 PM
Sun, May 29
78 °FPassing clouds.7 mph79%30.05 "Hg10 mi
10:58 PM77 °FClear.7 mph78%30.04 "Hg10 mi
Weather by CustomWeather, © 2016

See weather overviewHow to use our weather pages